Weather History for Banff, AB

Change the Weather History Date:

Friday, April 26, 2013

  Actual Average Record
Temperature  
Mean Temperature 52 °F -  
Max Temperature 60 °F - - ()
Min Temperature 44 °F - - ()
Degree Days  
Heating Degree Days 13    
Growing Degree Days 2 (Base 50)    
Moisture  
Dew Point 25 °F    
Average Humidity 37    
Maximum Humidity 50    
Minimum Humidity 24    
Precipitation  
Precipitation 0.00 in - - ()
Sea Level Pressure  
Sea Level Pressure 29.92 in    
Wind  
Wind Speed 7 mph ()    
Max Wind Speed 18 mph    
Max Gust Speed 33 mph    
T = Trace of Precipitation, MM = Missing Value Source: Averaged Metar Reports

Daily Weather History Graph

Daily Weather History Graph

Search for Another Location

Airport:

Trip Planner

Search our weather history database for the weather conditions in past years. The results will help you decide how hot, cold, wet, or windy it might be!

Date:

Astronomy

Apr. 26, 2013 Rise Set
Actual Time 6:23 AM MDT 8:57 PM MDT
Civil Twilight 5:46 AM MDT 9:34 PM MDT
Nautical Twilight 4:59 AM MDT 10:21 PM MDT
Astronomical Twilight 4:04 AM MDT 11:18 PM MDT
Moon 10:34 PM MDT (4/26) 6:48 AM MDT (4/26)
Length of Visible Light 15h 47m
Length of Day
14h 33m
Full, 99% of the Moon is Illuminated
Apr 26
Full
May 2
Last Quarter
May 9
New
May 17
First Quarter
May 24
Full

Hourly Weather History & Observations

Time (MDT) Temp. Windchill Dew Point Humidity Pressure Visibility Wind Dir Wind Speed Gust Speed Precip Events Conditions
12:00 AM 47.8 °F - 25.3 °F 41% 29.97 in - West 4.6 mph - N/A   Unknown
1:00 AM 47.8 °F - 25.7 °F 42% 29.96 in - West 3.5 mph - N/A   Unknown
2:00 AM 46.2 °F 43.3 °F 26.2 °F 46% 29.97 in - WSW 5.8 mph - N/A   Unknown
3:00 AM 44.4 °F 42.9 °F 26.8 °F 50% 29.96 in - SW 3.5 mph - N/A   Unknown
4:00 AM 46.2 °F 44.1 °F 27.0 °F 47% 29.95 in - SW 4.6 mph - N/A   Unknown
5:00 AM 48.9 °F - 26.2 °F 41% 29.93 in - WSW 4.6 mph - N/A   Unknown
6:00 AM 48.9 °F - 25.3 °F 40% 29.92 in - WSW 4.6 mph - N/A   Unknown
7:00 AM 48.4 °F - 25.7 °F 41% 29.92 in - WSW 5.8 mph - N/A   Unknown
8:00 AM 49.6 °F - 25.2 °F 38% 29.93 in - WSW 5.8 mph - N/A   Unknown
9:00 AM 50.9 °F - 25.0 °F 36% 29.94 in - WSW 5.8 mph - N/A   Unknown
10:00 AM 54.0 °F - 25.0 °F 33% 29.92 in - West 6.9 mph - N/A   Unknown
11:00 AM 56.7 °F - 23.4 °F 28% 29.88 in - WSW 16.1 mph 28.8 mph N/A   Unknown
12:00 PM 56.8 °F - 23.4 °F 27% 29.90 in - WSW 13.8 mph 24.2 mph N/A   Unknown
1:00 PM 57.0 °F - 24.4 °F 29% 29.90 in - WSW 11.5 mph 23.0 mph N/A   Unknown
2:00 PM 59.4 °F - 25.0 °F 27% 29.88 in - SW 18.4 mph 27.6 mph N/A   Unknown
3:00 PM 60.3 °F - 23.2 °F 24% 29.88 in - WSW 16.1 mph 33.4 mph N/A   Unknown
4:00 PM 57.0 °F - 21.9 °F 26% 29.91 in - WSW 13.8 mph 25.3 mph N/A   Unknown
5:00 PM 56.8 °F - 22.8 °F 27% 29.91 in - WSW 15.0 mph 27.6 mph N/A   Unknown
6:00 PM 55.2 °F - 22.5 °F 28% 29.92 in - WSW 9.2 mph 19.6 mph N/A   Unknown
7:00 PM 53.4 °F - 24.3 °F 32% 29.92 in - WSW 15.0 mph 25.3 mph N/A   Unknown
8:00 PM 49.1 °F - 29.8 °F 47% 29.95 in - WSW 13.8 mph 24.2 mph N/A   Unknown
9:00 PM 48.0 °F - 29.3 °F 48% 29.95 in - West 8.1 mph 23.0 mph N/A   Unknown
10:00 PM 48.6 °F - 27.1 °F 43% 29.93 in - WSW 8.1 mph - N/A   Unknown
11:00 PM 49.5 °F - 25.2 °F 39% 29.90 in - WSW 8.1 mph - N/A   Unknown